| time (UTC) | temp C | wind direction | speed KPH | gust KPH | rain 1hr cm | rain 24hr cm | rain mn cm | humidity % | barometer mb |
| 20260505034532 | 9 | 235 | 11.3 | 17.7 | 0.23 | 0.28 | 0.28 | 85 | 1010.3 |
| 20260505033028 | 9 | 225 | 9.7 | 16.1 | 0.25 | 0.25 | 0.25 | 84 | 1010.3 |
| 20260505031528 | 9 | 248 | 14.5 | 19.3 | 0.18 | 0.18 | 0.18 | 82 | 1010.0 |
| 20260505030028 | 9 | 234 | 12.9 | 17.7 | 0.13 | 0.13 | 0.13 | 79 | 1010.0 |
| 20260505024528 | 10 | 237 | 4.8 | 6.4 | 0.05 | 0.05 | 0.05 | 76 | 1009.7 |
| 20260505023029 | 11 | 293 | 4.8 | 11.3 | 0.00 | 0.00 | 0.00 | 69 | 1009.6 |
| 20260505021529 | 11 | 311 | 3.2 | 6.4 | 0.00 | 0.00 | 0.00 | 63 | 1009.2 |
| 20260505020028 | 11 | 297 | 3.2 | 6.4 | 0.00 | 0.00 | 0.00 | 63 | 1009.4 |
| 20260505014528 | 11 | 321 | 1.6 | 8.0 | 0.00 | 0.00 | 0.00 | 62 | 1009.2 |
| 20260505013030 | 12 | 299 | 4.8 | 19.3 | 0.00 | 0.00 | 0.00 | 60 | 1009.1 |
| 20260505011547 | 12 | 313 | 8.0 | 24.1 | 0.00 | 0.00 | 0.00 | 56 | 1008.9 |
| 20260505010026 | 13 | 352 | 6.4 | 9.7 | 0.00 | 0.00 | 0.00 | 56 | 1008.8 |
| 20260505004528 | 13 | 333 | 4.8 | 14.5 | 0.00 | 0.00 | 0.00 | 57 | 1008.8 |
| 20260505003028 | 14 | 316 | 6.4 | 9.7 | 0.00 | 0.00 | 0.00 | 56 | 1008.4 |
| 20260505001528 | 14 | 14 | 4.8 | 11.3 | 0.00 | 0.00 | 0.00 | 56 | 1008.1 |
| 20260505000037 | 13 | 300 | 4.8 | 9.7 | 0.00 | 0.00 | 0.00 | 58 | 1008.2 |
| 20260504234530 | 13 | 337 | 6.4 | 16.1 | 0.00 | 0.00 | 0.00 | 54 | 1008.1 |
| 20260504233028 | 15 | 325 | 9.7 | 19.3 | 0.00 | 0.00 | 0.00 | 47 | 1008.1 |
| 20260504231528 | 16 | 348 | 8.0 | 22.5 | 0.00 | 0.00 | 0.00 | 46 | 1008.1 |
| 20260504230030 | 16 | 277 | 17.7 | 24.1 | 0.00 | 0.00 | 0.00 | 42 | 1008.1 |
| 20260504224533 | 16 | 263 | 14.5 | 19.3 | 0.00 | 0.00 | 0.00 | 41 | 1008.1 |
| 20260504223030 | 16 | 328 | 4.8 | 8.0 | 0.00 | 0.00 | 0.00 | 38 | 1007.6 |
| 20260504221530 | 16 | 10 | 6.4 | 19.3 | 0.00 | 0.00 | 0.00 | 40 | 1007.2 |
| 20260504220028 | 17 | 21 | 12.9 | 27.4 | 0.00 | 0.00 | 0.00 | 40 | 1006.9 |
| 20260504214530 | 17 | 352 | 19.3 | 37.0 | 0.00 | 0.00 | 0.00 | 40 | 1007.0 |
| 20260504213033 | 18 | 346 | 19.3 | 33.8 | 0.00 | 0.00 | 0.00 | 41 | 1007.5 |
| 20260504211528 | 16 | 352 | 16.1 | 27.4 | 0.00 | 0.00 | 0.00 | 45 | 1007.4 |
| 20260504210028 | 15 | 327 | 11.3 | 29.0 | 0.00 | 0.00 | 0.00 | 47 | 1007.5 |
| 20260504204528 | 17 | 334 | 16.1 | 27.4 | 0.00 | 0.00 | 0.00 | 35 | 1007.5 |
| 20260504203028 | 20 | 22 | 11.3 | 20.9 | 0.00 | 0.00 | 0.00 | 25 | 1007.3 |
| 20260504201527 | 20 | 203 | 3.2 | 17.7 | 0.00 | 0.00 | 0.00 | 18 | 1006.7 |
| 20260504200030 | 22 | 320 | 12.9 | 25.7 | 0.00 | 0.00 | 0.00 | 20 | 1006.3 |
| 20260504194531 | 23 | 9 | 16.1 | 27.4 | 0.00 | 0.00 | 0.00 | 19 | 1006.5 |
| 20260504193028 | 22 | 309 | 17.7 | 29.0 | 0.00 | 0.00 | 0.00 | 19 | 1006.3 |
| 20260504191530 | 22 | 300 | 14.5 | 29.0 | 0.00 | 0.00 | 0.00 | 18 | 1006.1 |
| 20260504190030 | 22 | 330 | 12.9 | 25.7 | 0.00 | 0.00 | 0.00 | 16 | 1006.2 |
| 20260504184528 | 23 | 274 | 12.9 | 24.1 | 0.00 | 0.00 | 0.00 | 18 | 1006.4 |
| 20260504183029 | 22 | 304 | 19.3 | 29.0 | 0.00 | 0.00 | 0.00 | 18 | 1006.5 |
| 20260504181530 | 22 | 287 | 20.9 | 30.6 | 0.00 | 0.00 | 0.00 | 19 | 1006.7 |
| 20260504180029 | 22 | 272 | 24.1 | 32.2 | 0.00 | 0.00 | 0.00 | 20 | 1007.0 |
| 20260504174527 | 22 | 279 | 22.5 | 37.0 | 0.00 | 0.00 | 0.00 | 23 | 1007.1 |
| 20260504173028 | 21 | 275 | 27.4 | 37.0 | 0.00 | 0.00 | 0.00 | 23 | 1007.4 |
| 20260504171543 | 20 | 265 | 20.9 | 32.2 | 0.00 | 0.00 | 0.00 | 25 | 1007.8 |
| 20260504081528 | 9 | 227 | 1.6 | 3.2 | 0.00 | 0.00 | 0.00 | 42 | 1009.2 |
| 20260504044531 | 13 | 298 | 6.4 | 12.9 | 0.00 | 0.00 | 0.00 | 33 | 1009.8 |
| 20260504043042 | 16 | 265 | 8.0 | 14.5 | 0.00 | 0.00 | 0.00 | 29 | 1009.4 |
| 20260504041535 | 16 | 243 | 11.3 | 16.1 | 0.00 | 0.00 | 0.00 | 28 | 1009.6 |
| 20260504040030 | 17 | 230 | 9.7 | 16.1 | 0.00 | 0.00 | 0.00 | 27 | 1009.8 |